Tracking 17150 objects as of 4-August-2015
HD Live streaming from Space Station

GLOBALSTAR M031

Track GLOBALSTAR M031 now!
10-day predictions
GLOBALSTAR M031 is classified as:


NORAD ID: 25946
Int'l Code: 1999-058D
Perigee: 1,615.7 km
Apogee: 1,619.2 km
Inclination: 52.0 °
Period: 118.4 minutes
Semi major axis: 7988 km
RCS: 2.5697 m2 (large)
Launch date: October 18, 1999
Source: Globalstar (GLOB)
Your satellite tracking list
Your tracking list is empty





NASA's NSSDC Master Catalog

Two Line Element Set (TLE):
1 25946U 99058D   15215.57657935 -.00000086  00000-0  42618-4 0  9998
2 25946 051.9965 083.0344 0002207 061.1907 312.5243 12.15931449726150

Source of the keplerian elements: AFSPC

N2YO: 367